FENGYUN 1C DEB, 46449

Orbit data source: Space-Track

FENGYUN 1C DEB, 46449 is space debris in SSO originally from a launch on Mon, 10 May 1999 UTC launched from the Taiyaun Space Center, China (TSC). Fengyun 1C debris stems from the Chinese weather satellite Fengyun-1C, which was intentionally destroyed by a Chinese anti-satellite missile in 2007. This event dramatically increased the amount of space debris, with thousands of trackable fragments posing hazards to satellites and human spaceflight. The Fengyun 1C debris cloud has become a focal point in discussions about space sustainability and the need for international regulations to prevent the creation of new debris.

Loading next visibility...
Identifier
46449, 1999-025EZE
Orbit
SSO
Country
Flag of CNCN / PRC
Related business
Manufacturer
Unknown
Mission
Spacecraft
Bus & Motor
Unknown
Mass
Unknown
Launch date (UTC)
1999-05-10 (27 years ago)
Launch vehicle
Unknown
Launch site
Taiyaun Space Center, China (TSC)
Object type
Payload
Rocket body
Debris
Shape & HBR
Unknown shape, 0.1 m
Radar Cross Section
Small (<0.1 m²)

Expand to show TLE details & history
Last TLE update: 2 weeks ago

TLE from 2 weeks ago
0 FENGYUN 1C DEB
1 46449U 99025EZE 26193.05056865  .00000528  00000-0  22117-3 0  9999
2 46449  98.6198 227.1912 0202796  21.2193 339.7246 14.19585902606345
Epoch: 2026-07-12T01:12Z
TLE epoch observation values (Epoch: 2026-07-12T01:12:49.131Z)
Latitude
-0.00001°
Longitude
-80.96851°
Altitude
692.951 km
Speed
7.581 km/s
True Right ascension
15h 08m 45s
True Declination
0° 00' 00"
Sunlit
Object was in daylight at epoch
Visualization orbit readout
Latitude
Unknown
Longitude
Unknown
Altitude
Unknown
Speed
Unknown
Apparent Right ascension
Unknown
Apparent Declination
Unknown
Sunlit
N/A
Visualization observer readout
Local Sidereal Time
04:46:20
Azimuth
Unknown
Elevation
Unknown
Doppler factor
Unknown
Orbital elements
Apogee altitude
969.961 km
Perigee altitude
677.852 km
Semi-major axis
7,202.044 km
Eccentricity
0.02028
Inclination
98.6198°
RAAN
227.1912°
Arg. of periapsis
21.2193°
True anomaly
338.89974°
Mean anomaly
339.7246°
Eccentric anomaly
339.31415°
Mean motion
3.55107 °/min
Orbital period
101.38 mins
BSTAR
0.00022117
Loading maneuver chart data...
Computing Atmospheric mass density...

Documentation

Showing up to 5 results
|